Regional Weather Roundup
Issued by NWS

Home | Current Version | Previous Version | Graphics & Text | Print | Product List | Glossary On
Versions: 1 2 3 4 5 6 7 8 9 10 11 12 13 14 15 16 17 18 19 20 21 22 23 24 25 26 27 28 29 30 31 32 33 34 35 36 37 38 39 40 41 42 43 44 45 46 47 48 49 50
000
ASUS43 KOAX 250810
RWRNE

WEATHER ROUNDUP FOR NEBRASKA
NATIONAL WEATHER SERVICE OMAHA NE
200 AM CST SAT NOV 25 2017

NOTES: SATELLITE DATA IS BEING USED TO AUGMENT CLOUD COVER ABOVE
       12000 FEET.
       "FAIR" INDICATES FEW OR NO CLOUDS BELOW 12,000 FEET WITH NO
       SIGNIFICANT WEATHER AND/OR OBSTRUCTIONS TO VISIBILITY.


NEZ001>004-019>022-054>056-250900-
NEBRASKA PANHANDLE

CITY           SKY/WX    TMP DP  RH WIND       PRES   REMARKS
SCOTTSBLUFF    CLOUDY    28  19  69 CALM      30.07S
ALLIANCE       CLOUDY    25  22  88 NW5       30.07R WCI  19
CHADRON        CLOUDY    29  26  89 W3        30.07R
GORDON         FAIR      25  21  84 CALM      30.07S
KIMBALL        CLOUDY    28  25  91 W6        30.09R WCI  21
SIDNEY         CLOUDY    25  21  85 W6        30.09S WCI  18
$$

NEZ057>060-069>072-079>082-250900-
SOUTHWEST NEBRASKA

CITY           SKY/WX    TMP DP  RH WIND       PRES   REMARKS
NORTH PLATTE   CLEAR     27  24  89 NW6       30.09R WCI  20
IMPERIAL       MOCLDY    34  27  75 W7        30.10R WCI  28
LEXINGTON      CLEAR     29  25  83 W5        30.07S WCI  24
MCCOOK         CLOUDY    39  32  76 W8        30.09S WCI  33
OGALLALA       CLOUDY    28  24  85 CALM      30.09S
$$

NEZ005>010-023>029-035>040-094-250900-
NORTH CENTRAL NEBRASKA

CITY           SKY/WX    TMP DP  RH WIND       PRES   REMARKS
VALENTINE      CLEAR     31  27  85 SW9       30.06R WCI  23
AINSWORTH      CLEAR     31  29  90 W3        30.06R
BROKEN BOW     CLEAR     26  22  84 CALM      30.07R
O`NEILL        CLEAR     32  30  92 W6        30.04R WCI  26
ORD            CLEAR     30  26  85 NW5       30.05R WCI  25
THEDFORD       CLEAR     29  25  87 W8        30.09R WCI  21
$$

NEZ041-046>049-061>064-073>077-083>087-250900-
SOUTH CENTRAL NEBRASKA

CITY           SKY/WX    TMP DP  RH WIND       PRES   REMARKS
GRAND ISLAND   CLEAR     33  28  81 W8        30.05S WCI  26
AURORA         CLEAR     33  28  82 W8        30.04S WCI  26
HASTINGS       CLEAR     33  25  72 NW3       30.05S
HEBRON         CLEAR     38  32  79 CALM      30.05S
HOLDREGE       CLEAR     33  28  83 NW5       30.07S WCI  28
KEARNEY        CLEAR     34  27  75 W7        30.06S WCI  28
YORK           CLEAR     36  32  87 NW6       30.04S WCI  31
$$

NEZ011>018-030>034-042>045-250900-
NORTHEAST NEBRASKA

CITY           SKY/WX    TMP DP  RH WIND       PRES   REMARKS
NORFOLK        CLEAR     35  31  85 W9        30.02R WCI  28
ALBION         CLEAR     30  27  90 CALM      30.04R
COLUMBUS       CLEAR     32  30  92 W7        30.04S WCI  26
FREMONT        CLEAR     33  31  90 NW5       30.01S WCI  29
TEKAMAH        CLEAR     34  28  79 NW6       30.00S WCI  29
WAYNE          CLEAR     29  27  92 CALM      30.02R
$$

NEZ050>053-065>068-078-088>093-250900-
SOUTHEAST NEBRASKA

CITY           SKY/WX    TMP DP  RH WIND       PRES   REMARKS
LINCOLN        CLEAR     36  32  85 CALM      30.05R
OMAHA EPPLEY   CLEAR     37  29  72 CALM      30.01S
BEATRICE       CLEAR     36  32  86 CALM      30.04S
FALLS CITY     CLEAR     38  33  82 NW7       30.01R WCI  33
NEBRASKA CITY  CLEAR     41  34  76 NW9       30.02R
PLATTSMOUTH    CLEAR     41  34  76 W8        30.02S
$$

NEZ044-045-051>053-067-250900-
OMAHA AREA

CITY           SKY/WX    TMP DP  RH WIND       PRES   REMARKS
OMAHA EPPLEY   CLEAR     37  29  72 CALM      30.01S
FREMONT        CLEAR     33  31  90 NW5       30.01S WCI  29
MILLARD        CLEAR     37  33  87 CALM      30.02R
OFFUTT AFB     CLEAR     34  29  81 CALM      30.01R
PLATTSMOUTH    CLEAR     41  34  76 W8        30.02S
WAHOO          FAIR      40  34  79 CALM      30.01S
$$




USA.gov is the U.S. government's official web portal to all federal, state and local government web resources and services.